• In Hungary
  • List of Countries
  • For 7 days
  • Water Temperature
  • Satellite Maps
  • Weather Map
  • News
  • Weather Widgets
  • user-avatar
    Login

    Hourly Weather Novaya Sakma

    Today, 24 October, Wednesday

    Time Temperature Precipitation Wind Pressure Humidity
    00:00 +8°C° 0 mm 4 mps 752 mmHg 81%
    01:00 +8°C° 0 mm 4 mps 752 mmHg 85%
    02:00 +9°C° 0 mm 3 mps 752 mmHg 89%
    03:00 +9°C° 0 mm 3 mps 752 mmHg 93%
    04:00 +8°C° 0 mm 3 mps 752 mmHg 94%
    05:00 +7°C° 0 mm 3 mps 751 mmHg 95%
    06:00 +7°C° 0 mm 3 mps 751 mmHg 95%
    07:00 +7°C° 0 mm 4 mps 751 mmHg 87%
    08:00 +8°C° 0 mm 5 mps 751 mmHg 78%
    09:00 +9°C° 0 mm 5 mps 751 mmHg 70%
    10:00 +10°C° 0 mm 6 mps 751 mmHg 63%
    11:00 +11°C° 0 mm 6 mps 751 mmHg 56%
    12:00 +13°C° 0 mm 6 mps 750 mmHg 50%
    13:00 +13°C° 0 mm 6 mps 750 mmHg 49%
    14:00 +14°C° 0 mm 6 mps 750 mmHg 48%
    15:00 +14°C° 0 mm 6 mps 749 mmHg 48%
    16:00 +13°C° 0 mm 5 mps 749 mmHg 52%
    17:00 +12°C° 0 mm 5 mps 749 mmHg 56%
    18:00 +10°C° 0 mm 5 mps 749 mmHg 60%
    19:00 +10°C° 0 mm 5 mps 749 mmHg 60%
    20:00 +10°C° 0 mm 6 mps 748 mmHg 61%
    21:00 +10°C° 0 mm 6 mps 748 mmHg 62%
    22:00 +11°C° 0.2 mm 7 mps 748 mmHg 65%
    23:00 +11°C° 0.2 mm 7 mps 747 mmHg 68%

    Tomorrow, 25 October, Thursday

    Time Temperature Precipitation Wind Pressure Humidity
    00:00 +11°C° 0.2 mm 8 mps 747 mmHg 71%
    01:00 +11°C° 1.4 mm 8 mps 746 mmHg 73%
    02:00 +11°C° 1.4 mm 8 mps 746 mmHg 75%
    03:00 +11°C° 1.4 mm 8 mps 745 mmHg 77%
    04:00 +11°C° 0.7 mm 8 mps 745 mmHg 78%
    05:00 +11°C° 0.7 mm 8 mps 744 mmHg 78%
    06:00 +11°C° 0.7 mm 9 mps 744 mmHg 79%
    07:00 +11°C° 0.2 mm 8 mps 743 mmHg 78%
    08:00 +12°C° 0.2 mm 8 mps 743 mmHg 78%
    09:00 +12°C° 0.2 mm 8 mps 743 mmHg 77%
    10:00 +12°C° 0.4 mm 7 mps 743 mmHg 75%
    11:00 +14°C° 0.4 mm 7 mps 743 mmHg 73%
    12:00 +15°C° 0.4 mm 7 mps 742 mmHg 71%
    13:00 +15°C° 0.3 mm 6 mps 742 mmHg 73%
    14:00 +15°C° 0.3 mm 5 mps 742 mmHg 74%
    15:00 +15°C° 0.3 mm 5 mps 741 mmHg 76%
    16:00 +14°C° 1 mm 4 mps 741 mmHg 80%
    17:00 +14°C° 1 mm 4 mps 741 mmHg 83%
    18:00 +13°C° 1 mm 4 mps 741 mmHg 87%
    19:00 +13°C° 0.1 mm 5 mps 741 mmHg 85%
    20:00 +11°C° 0.1 mm 6 mps 742 mmHg 82%
    21:00 +11°C° 0.1 mm 6 mps 742 mmHg 80%
    22:00 +10°C° 0.1 mm 6 mps 743 mmHg 76%
    23:00 +9°C° 0.1 mm 5 mps 743 mmHg 71%

    Day after tomorrow, 26 October, Friday

    Time Temperature Precipitation Wind Pressure Humidity
    00:00 +8°C° 0.1 mm 5 mps 744 mmHg 66%
    01:00 +8°C° 0 mm 5 mps 744 mmHg 66%
    02:00 +8°C° 0 mm 5 mps 745 mmHg 67%
    03:00 +7°C° 0 mm 5 mps 745 mmHg 67%
    04:00 +7°C° 0 mm 5 mps 745 mmHg 69%
    05:00 +6°C° 0 mm 5 mps 746 mmHg 70%
    06:00 +6°C° 0 mm 5 mps 746 mmHg 72%
    07:00 +5°C° 0 mm 6 mps 747 mmHg 70%
    08:00 +5°C° 0 mm 6 mps 747 mmHg 68%
    09:00 +6°C° 0 mm 7 mps 748 mmHg 66%
    10:00 +6°C° 0 mm 7 mps 748 mmHg 62%
    11:00 +8°C° 0 mm 7 mps 748 mmHg 59%
    12:00 +8°C° 0 mm 7 mps 749 mmHg 55%
    13:00 +8°C° 0 mm 7 mps 749 mmHg 53%
    14:00 +8°C° 0 mm 7 mps 749 mmHg 52%
    15:00 +8°C° 0 mm 6 mps 750 mmHg 50%
    16:00 +7°C° 0 mm 5 mps 750 mmHg 53%
    17:00 +6°C° 0 mm 4 mps 751 mmHg 56%
    18:00 +5°C° 0 mm 3 mps 751 mmHg 59%
    19:00 +5°C° 0 mm 3 mps 752 mmHg 61%
    20:00 +4°C° 0 mm 3 mps 752 mmHg 64%
    21:00 +5°C° 0 mm 2 mps 752 mmHg 66%
    22:00 +5°C° 0 mm 2 mps 752 mmHg 67%
    23:00 +4°C° 0 mm 2 mps 753 mmHg 69%

    27 October, Saturday

    Time Temperature Precipitation Wind Pressure Humidity
    00:00 +4°C° 0 mm 2 mps 753 mmHg 71%
    01:00 +4°C° 0 mm 2 mps 753 mmHg 72%
    02:00 +4°C° 0 mm 2 mps 754 mmHg 74%
    03:00 +3°C° 0 mm 2 mps 754 mmHg 75%
    04:00 +3°C° 0 mm 2 mps 754 mmHg 77%
    05:00 +2°C° 0 mm 3 mps 754 mmHg 78%
    06:00 +2°C° 0 mm 3 mps 755 mmHg 80%
    07:00 +3°C° 0 mm 4 mps 755 mmHg 74%
    08:00 +4°C° 0 mm 4 mps 756 mmHg 69%
    09:00 +5°C° 0 mm 5 mps 756 mmHg 63%
    10:00 +5°C° 0 mm 5 mps 756 mmHg 59%
    11:00 +5°C° 0 mm 6 mps 756 mmHg 55%
    12:00 +7°C° 0 mm 6 mps 757 mmHg 52%
    13:00 +7°C° 0 mm 6 mps 757 mmHg 53%
    14:00 +7°C° 0 mm 6 mps 757 mmHg 55%
    15:00 +7°C° 0 mm 6 mps 757 mmHg 57%
    16:00 +7°C° 0 mm 5 mps 757 mmHg 61%
    17:00 +6°C° 0 mm 5 mps 757 mmHg 65%
    18:00 +5°C° 0 mm 4 mps 758 mmHg 69%
    19:00 +5°C° 0 mm 5 mps 757 mmHg 67%
    20:00 +6°C° 0 mm 5 mps 757 mmHg 66%
    21:00 +5°C° 0 mm 6 mps 757 mmHg 64%
    22:00 +5°C° 0 mm 7 mps 756 mmHg 65%
    23:00 +6°C° 0 mm 8 mps 755 mmHg 66%

    28 October, Sunday

    Time Temperature Precipitation Wind Pressure Humidity
    00:00 +6°C° 0 mm 9 mps 755 mmHg 67%
    01:00 +6°C° 0.8 mm 10 mps 754 mmHg 72%
    02:00 +7°C° 0.8 mm 10 mps 754 mmHg 77%
    03:00 +7°C° 0.8 mm 11 mps 753 mmHg 82%
    04:00 +8°C° 0.9 mm 10 mps 753 mmHg 82%
    05:00 +8°C° 0.9 mm 9 mps 753 mmHg 82%
    06:00 +8°C° 0.9 mm 9 mps 753 mmHg 82%
    07:00 +8°C° 0.1 mm 9 mps 754 mmHg 75%
    08:00 +8°C° 0.1 mm 10 mps 754 mmHg 68%
    09:00 +8°C° 0.1 mm 11 mps 755 mmHg 61%
    10:00 +8°C° 0 mm 11 mps 756 mmHg 57%
    11:00 +8°C° 0 mm 11 mps 756 mmHg 52%
    12:00 +7°C° 0 mm 11 mps 757 mmHg 47%
    13:00 +7°C° 0 mm 10 mps 758 mmHg 48%
    14:00 +7°C° 0 mm 10 mps 759 mmHg 48%
    15:00 +6°C° 0 mm 9 mps 759 mmHg 49%
    16:00 +5°C° 0 mm 8 mps 760 mmHg 52%
    17:00 +5°C° 0 mm 7 mps 761 mmHg 56%
    18:00 +4°C° 0 mm 6 mps 762 mmHg 60%
    19:00 +3°C° 0 mm 5 mps 763 mmHg 62%
    20:00 +3°C° 0 mm 5 mps 764 mmHg 63%
    21:00 +2°C° 0 mm 5 mps 764 mmHg 65%
    22:00 +3°C° 0 mm 4 mps 765 mmHg 67%
    23:00 +1°C° 0 mm 4 mps 765 mmHg 69%

    29 October, Monday

    Time Temperature Precipitation Wind Pressure Humidity
    00:00 +2°C° 0 mm 3 mps 766 mmHg 71%
    01:00 +2°C° 0 mm 3 mps 766 mmHg 73%
    02:00 +1°C° 0 mm 3 mps 767 mmHg 75%
    03:00 +2°C° 0 mm 2 mps 767 mmHg 77%
    04:00 +2°C° 0 mm 2 mps 768 mmHg 77%
    05:00 +2°C° 0 mm 2 mps 768 mmHg 78%
    06:00 +3°C° 0 mm 1 mps 768 mmHg 79%
    07:00 +4°C° 0 mm 1 mps 769 mmHg 75%
    08:00 +4°C° 0 mm 1 mps 769 mmHg 70%
    09:00 +5°C° 0 mm 1 mps 769 mmHg 66%
    10:00 +5°C° 0 mm 1 mps 769 mmHg 64%
    11:00 +6°C° 0 mm 1 mps 769 mmHg 61%
    12:00 +6°C° 0 mm 1 mps 769 mmHg 59%
    13:00 +6°C° 0.2 mm 1 mps 769 mmHg 63%
    14:00 +6°C° 0.2 mm 1 mps 769 mmHg 68%
    15:00 +5°C° 0.2 mm 1 mps 769 mmHg 72%
    16:00 +5°C° 0.3 mm 1 mps 769 mmHg 75%
    17:00 +4°C° 0.3 mm 2 mps 769 mmHg 77%
    18:00 +4°C° 0.3 mm 2 mps 769 mmHg 80%
    19:00 +3°C° 0.2 mm 3 mps 769 mmHg 80%
    20:00 +3°C° 0.2 mm 3 mps 768 mmHg 80%
    21:00 +3°C° 0.2 mm 4 mps 768 mmHg 80%
    22:00 +3°C° 0.2 mm 4 mps 768 mmHg 80%
    23:00 +3°C° 0.2 mm 4 mps 767 mmHg 79%

    30 October, Tuesday

    Time Temperature Precipitation Wind Pressure Humidity
    00:00 +3°C° 0.2 mm 4 mps 767 mmHg 79%
    01:00 +3°C° 0.1 mm 4 mps 766 mmHg 78%
    02:00 +2°C° 0.1 mm 5 mps 765 mmHg 77%
    03:00 +2°C° 0.1 mm 5 mps 765 mmHg 76%
    04:00 +2°C° 0 mm 5 mps 764 mmHg 77%
    05:00 +3°C° 0 mm 4 mps 763 mmHg 78%
    06:00 +4°C° 0 mm 4 mps 763 mmHg 78%
    07:00 +5°C° 0 mm 4 mps 762 mmHg 77%
    08:00 +7°C° 0 mm 5 mps 762 mmHg 76%
    09:00 +8°C° 0 mm 5 mps 761 mmHg 75%
    10:00 +9°C° 0 mm 5 mps 761 mmHg 73%
    11:00 +12°C° 0 mm 5 mps 760 mmHg 72%
    12:00 +13°C° 0 mm 6 mps 759 mmHg 70%
    13:00 +13°C° 0 mm 6 mps 759 mmHg 71%
    14:00 +13°C° 0 mm 6 mps 758 mmHg 73%
    15:00 +14°C° 0 mm 6 mps 758 mmHg 74%
    16:00 +13°C° 0 mm 5 mps 758 mmHg 77%
    17:00 +12°C° 0 mm 5 mps 758 mmHg 80%
    18:00 +12°C° 0 mm 4 mps 758 mmHg 83%
    19:00 +11°C° 0 mm 4 mps 757 mmHg 83%
    20:00 +11°C° 0 mm 4 mps 757 mmHg 84%
    21:00 +11°C° 0 mm 3 mps 757 mmHg 85%
    22:00 +10°C° 0 mm 3 mps 757 mmHg 84%
    23:00 +10°C° 0 mm 3 mps 757 mmHg 84%
    Show more